Tracking 18942 objects as of 17-Jan-2018
HD Live streaming from Space Station
objects crossing your sky now

FENGYUN 1C DEB

Track FENGYUN 1C DEB now!
10-day predictions


NORAD ID: 41009
Int'l Code: 1999-025EXP
Perigee: 821.7 km
Apogee: 851.4 km
Inclination: 99.2 °
Period: 101.5 minutes
Semi major axis: 7207 km
RCS: Unknown
Launch date: May 10, 1999
Source: People's Republic of China (PRC)
Launch site: Taiyaun Space Center, China (TSC)

Note: This is SATELLITE DEBRIS
aabbcc
Your satellite tracking list
Your tracking list is empty




NASA's NSSDC Master Catalog

Two Line Element Set (TLE):
1 41009U 99025EXP 18009.64862132  .00000956  00000-0  48200-3 0  9996
2 41009  99.2103 163.9269 0020596 108.5030 251.8385 14.18791573177525
Source of the keplerian elements: AFSPC